Погода в Беруни

Польша     50°05′01″N   19°07′32″E
темп.,
°C
ветер,
м/с
пор.,
м/с
влажн.,
%
обл.,
%
осадки,
мм/ч
давл.,
гПа
погр.,
м
16 мая, вс
вс1623:00+11ю228999 0.4 100718
02:00+11ююв2288100 0.4 100725
05:00+10ю2291100 0.3 100546
08:00+13ююз2382100 0.8 1006217
11:00+13зюз3687100 2.1 1007434
14:00+15ююз3574100 3.0 10071023
17:00+15ююз357881 1.2 1006583
20:00+12юз24850 1.9 100673
17 мая, пн
пн1723:00+9ю22900 0.0 100725
02:00+8ююв229095 0.0 100720
05:00+8вюв229089 0.0 100628
08:00+12в2481100 0.0 1005224
11:00+15зсз1272100 0.0 1004605
14:00+12з4696100 2.1 1004379
17:00+11ссз2397100 8.0 1005174
20:00+10з5996100 10.9 1006536
18 мая, вт
вт1823:00+9зюз3797100 2.3 1007365
02:00+10з51295100 4.1 1007803
05:00+9з61293100 0.3 1009838
08:00+9зюз51189100 0.3 1010811
11:00+11з5982100 0.2 10111007
14:00+14зсз586540 0.6 10101348
17:00+13з587664 0.6 1011719
20:00+11з24865 1.3 1011131
19 мая, ср
ср1923:00+9зюз369546 0.5 1013131
02:00+9зюз4896100 0.7 1014264
05:00+7зюз249733 0.0 101490
08:00+10зсз468870 0.1 1015608
11:00+11з4575100 0.2 1015940
14:00+14з4563100 0.8 10131401
17:00+12зсз4772100 0.3 1014815
20:00+10зсз4882100 0.3 1015458
20 мая, чт
чт2023:00+8з4890100 0.1 1015506
02:00+8з3893100 0.3 1015446
05:00+7з3794100 0.1 1015363
08:00+9зсз4683100 0.3 1016633
11:00+13ссз5758100 0.5 10161731
14:00+14сз5761100 1.4 10151646
17:00+13сз5875100 1.5 10161009
20:00+10сз378514 2.6 1017160